Location: Kitchener
(43.4500°N, 80.5000°W)
Time: 16:40:09
(UTC-04:00)

Daily predictions for brighter satellites

Satellite Brightness Start Highest point End
(mag) Time Altitude Azimuth Time Altitude Azimuth Time Altitude Azimuth
DEBRIS 3.6 21:15:07 10° SW 21:18:15 57° SE 21:27:46 10° ENE
Cosmos 923 Rocket 4.1 21:17:11 10° SSW 21:22:30 83° ESE 21:27:49 10° NNE
Cosmos 1441 Rocket 3.7 21:21:37 10° SSE 21:25:05 37° E 21:28:33 10° NNE
ERS-1 Rocket 3.6 21:22:30 10° SE 21:27:11 42° ENE 21:31:54 10° N
Cosmos 1455 Rocket 4.2 21:23:18 10° NNW 21:27:29 46° W 21:31:37 10° SSW
CENTAUR R/B 3.5 21:19:42 10° NW 21:27:33 68° WSW 21:35:53 10° SSE
Resurs 01 Rocket 3.3 21:24:35 10° SSW 21:28:35 33° W 21:32:37 10° NNW
NOSS 2-2 (D) 4.1 21:27:34 10° SW 21:31:34 65° NW 21:36:15 10° NNE
SPOT 5 4.0 21:30:42 10° ESE 21:34:06 23° ENE 21:37:33 10° NNE
Meteor 1-29 2.8 21:30:48 10° NNE 21:34:10 69° ESE 21:37:31 10° S
USA 40 PKM 4.4 21:32:28 10° SW 21:35:51 90° SE 21:40:40 10° NE
Nadezhda 1 Rocket 4.1 21:31:16 10° S 21:37:31 62° E 21:43:50 10° NNE
MOS 1-B Rocket 4.5 21:36:19 10° SE 21:41:52 48° ENE 21:48:08 10° N
COSMOS 2406 3.5 21:37:07 10° SSW 21:42:50 78° WNW 21:48:34 10° NNE
Cosmos 2082 Rocket 3.6 21:42:02 10° SE 21:45:47 18° E 21:49:31 10° ENE
Cosmos 1743 3.8 21:45:12 10° NNW 21:48:56 44° W 21:52:39 10° SSW
Cosmos 2154 Rocket 4.2 21:45:01 10° N 21:51:18 61° E 21:57:34 10° SSE
CZ-4B DEB 3.6 21:49:43 10° S 21:52:35 44° W 21:55:29 10° NNW
CRYOSAT 2 4.3 21:49:45 10° SSE 21:54:33 73° E 21:59:25 10° N
Cosmos 2112 Rocket 4.2 21:49:50 10° SSW 21:55:03 78° WNW 22:00:17 10° NNE
Cosmos 1238 Rocket 4.1 21:50:09 10° S 21:56:54 82° E 22:03:21 10° N
Aureole 3 Rocket 3.9 21:52:45 10° SSW 21:58:52 65° W 22:03:13 10° N
ISS -3.6 21:55:38 10° WSW 21:58:56 76° NNW 22:02:14 10° NE
ASTEX 1 3.4 21:56:08 10° S 22:01:02 88° WSW 22:05:57 10° N
Cosmos 1624 Rocket 4.1 21:55:50 10° NNW 22:01:08 68° ENE 22:05:37 14° SSE
OAO 2 Rocket 4.2 21:57:42 10° WSW 22:01:59 30° S 22:05:07 16° SE
H-2A R/B 3.0 21:59:49 14° ESE 22:03:25 32° ENE 22:07:53 10° N
Cosmos 2369 4.2 21:58:45 10° NNW 22:04:20 49° ENE 22:08:44 16° SE
Cosmos 1697 Rocket 4.0 22:00:14 10° N 22:04:59 27° NE 22:09:12 12° ESE
TELKOM 3 4.2 22:03:01 10° NW 22:05:11 39° NNE 22:07:27 14° E
Cosmos 2228 4.0 22:03:07 10° NNE 22:06:57 30° ENE 22:09:27 17° SE
SL-27 R/B 3.5 22:04:13 10° SW 22:07:47 50° WNW 22:11:22 10° N
Cosmos 921 Rocket 3.5 22:05:13 10° N 22:09:35 48° ENE 22:12:33 19° SE
Cosmos 1939 Rocket 4.4 22:06:08 10° SSW 22:09:36 31° W 22:13:06 10° NNW
YAOGAN 6 3.4 22:07:00 10° S 22:10:22 46° W 22:13:47 10° NNW
Cosmos 1666 4.2 22:08:05 10° NNW 22:11:31 35° W 22:14:56 10° SSW
Cosmos 1656 4.4 22:07:39 10° NNW 22:12:47 40° ENE 22:16:38 17° ESE
Meteor 1-4 Rocket 4.3 22:10:29 10° NNE 22:13:06 19° ENE 22:14:27 15° E
SL-08 RB Rocket 4.0 22:12:25 18° SE 22:15:30 50° ENE 22:19:51 10° N
Okean 1-7 Rocket 4.1 22:13:42 10° SSW 22:18:07 63° W 22:22:36 10° N
Cosmos 1892 Rocket 3.7 22:15:23 14° S 22:19:05 57° E 22:23:24 10° NNE
Intercosmos 24 4.0 22:16:07 10° NNW 22:19:57 65° W 22:22:54 14° S
Cosmos 2056 Rocket 3.4 22:15:14 10° NNW 22:20:26 89° WSW 22:24:17 18° SSE
Cosmos 1437 Rocket 2.8 22:18:33 10° NNW 22:22:24 77° W 22:25:17 17° S
Cosmos 1833 Rocket 3.3 22:19:02 16° SSE 22:22:51 34° ESE 22:27:52 10° NE
Cosmos 2341 Rocket 4.0 22:17:46 10° N 22:24:10 79° E 22:29:27 16° SSE
MetOp-A 4.3 22:23:24 14° S 22:28:06 74° WSW 22:33:29 10° NNW
Cosmos 1606 Rocket 3.6 22:25:44 10° NNW 22:30:04 76° W 22:33:15 18° S
PSLV R/B 4.4 22:30:03 10° WSW 22:32:39 24° SSW 22:32:59 23° S
Cosmos 839 Rocket 4.3 22:27:37 10° NNW 22:34:11 88° WSW 22:39:48 21° SSE
Cosmos 2218 Rocket 4.3 22:29:37 10° N 22:35:36 50° ENE 22:39:18 23° SE
Cosmos 1066 Rocket 4.4 22:34:16 21° SSE 22:37:45 50° E 22:43:10 10° NNE
Cosmos 1726 Rocket 3.7 22:35:28 10° NNW 22:39:47 72° W 22:42:37 21° S
Cosmos 1025 Rocket 4.4 22:38:28 10° SW 22:42:26 37° WNW 22:46:25 10° N
USA 245 2.6 22:42:20 40° SSW 22:42:54 54° WSW 22:45:12 10° NNW
Cosmos 1515 3.9 22:40:58 15° SSW 22:43:59 68° W 22:47:47 10° N
COSMOS 2487 2.3 22:43:44 22° SSW 22:45:53 82° ESE 22:49:29 10° NNE
CZ-3A R/B 1.1 22:46:43 10° SW 22:48:50 33° WSW 22:48:50 33° WSW
Iridium 43 3.5 22:48:03 10° N 22:50:03 68° NNW 22:50:03 68° NNW
CARTOSAT-1 4.1 22:50:14 30° ESE 22:51:51 44° ENE 22:55:58 10° N
Cosmos 1452 Rocket 3.5 22:47:08 10° NNW 22:52:26 74° ENE 22:55:04 30° SSE
Cosmos 1980 Rocket 3.1 22:48:08 10° NNW 22:53:25 38° ENE 22:56:23 22° ESE
Cosmos 2058 Rocket 3.3 22:49:59 10° NNW 22:54:24 69° W 22:56:51 26° S
Landsat 7 3.8 22:52:27 31° SSE 22:54:43 71° ENE 22:59:29 10° N
SPOT 1/Viking Rocket 3.6 22:51:40 24° S 22:54:48 79° WSW 22:59:59 10° NNW
Cosmos 2181 Rocket 4.1 22:49:25 11° SSW 22:55:40 78° W 23:01:59 10° N
Cosmos 1766 4.0 22:55:13 10° N 22:58:50 36° ENE 22:59:35 33° ESE
Tiangong 2 0.9 22:57:24 10° W 23:00:35 81° S 23:00:58 65° ESE
ARGOS 3.8 22:58:32 18° SSW 23:02:23 49° W 23:07:40 10° NNW
Cosmos 2322 Rocket 4.1 22:59:23 10° N 23:03:29 20° NE 23:07:11 11° E
Lacrosse 5 rocket 4.0 23:00:56 10° NNW 23:04:19 19° NNE 23:07:41 10° ENE
USA 267 4.3 23:01:03 10° ENE 23:05:41 23° ESE 23:05:41 23° ESE
Terra 1.8 23:07:56 37° SSE 23:09:45 70° ENE 23:14:30 10° N
SPOT 5 3.9 23:09:29 18° SSW 23:12:01 33° W 23:16:00 10° NNW
H-2A R/B 2.1 23:15:12 43° SSE 23:16:40 79° ENE 23:21:13 10° N
Cosmos 1812 Rocket 3.7 23:12:58 10° N 23:17:25 63° E 23:18:32 46° SE
Cosmos 864 Rocket 4.4 23:11:13 10° N 23:17:33 87° E 23:20:41 32° S
IGS 5A 3.4 23:18:14 50° SSE 23:19:17 83° ENE 23:23:28 10° N
Cosmos 468 4.4 23:17:25 29° S 23:20:08 79° ESE 23:25:27 10° NNE
Meteor 2-21 4.4 23:15:48 10° N 23:21:53 81° W 23:24:52 32° S
PSLV R/B 3.7 23:24:25 48° NNE 23:24:25 48° NNE 23:26:39 10° N
Cosmos 1758 4.4 23:20:31 10° NNE 23:24:04 30° ENE 23:24:21 30° E
Meteor 2-21 Rocket 4.3 23:19:51 10° N 23:25:57 89° E 23:28:37 36° S
Cosmos 1626 Rocket 3.6 23:26:20 39° SSW 23:27:51 73° W 23:32:11 10° N
Spot 4 4.1 23:26:55 42° SE 23:28:13 57° ENE 23:32:57 10° N
ATLAS CENTAUR R/B 3.4 23:26:47 10° N 23:29:12 16° NE 23:30:40 13° ENE
Cosmos 2082 Rocket 2.5 23:23:37 10° SW 23:29:16 67° WNW 23:34:55 10° NNE
CZ-2C R/B 4.4 23:26:27 10° NE 23:29:58 17° E 23:30:19 17° E
Cosmos 1805 3.7 23:26:56 10° N 23:30:42 45° ENE 23:30:53 45° E
SL-19 R/B 4.0 23:25:43 10° NNE 23:31:06 82° ESE 23:33:15 37° S
Meteor 1-22 Rocket 4.2 23:27:16 10° NNW 23:32:34 73° W 23:34:40 38° S
USA 229 DEB 3.8 23:28:25 10° NW 23:35:35 78° NE 23:39:05 34° SE
USA 229 3.8 23:28:31 10° NW 23:35:41 77° NE 23:39:12 34° SE
ISS -1.2 23:33:07 10° WNW 23:35:50 23° NNW 23:38:32 10° NE
Cosmos 1953 Rocket 4.5 23:40:02 34° E 23:40:02 34° E 23:44:05 10° NNE
Cosmos 2366 rocket 4.3 23:34:30 10° NNW 23:40:32 59° W 23:43:33 30° SSW
Cosmos 1825 Rocket 3.8 23:41:26 48° E 23:41:32 48° E 23:45:42 10° NNE
H-2A R/B 3.3 23:40:27 21° SW 23:42:49 31° W 23:47:17 10° NNW
ALOS 2 4.4 23:46:15 19° E 23:47:07 20° ENE 23:50:20 10° NNE
Cosmos 158 Rocket 3.9 23:46:06 41° SSW 23:48:02 89° ESE 23:53:27 10° NNE
Meteor 1-4 Rocket 4.2 23:45:14 10° NW 23:48:14 25° W 23:48:46 24° WSW
Cosmos 1697 Rocket 3.2 23:43:48 10° NW 23:49:12 49° WSW 23:50:57 37° SSW
Cosmos 2360 4.1 23:44:23 10° NNW 23:50:09 85° ENE 23:51:48 49° SSE
CZ-4C R/B 3.1 23:52:04 70° NNE 23:52:04 70° NNE 23:55:25 10° N
